Flag for Germany Weather past 2 weeks in Weyhe, Lower Saxony, Germany

Now
50 °F

Fog.


Feels Like: 47 °F
Forecast: 49 / 70 °F
Wind: 8 mph from Northeast

Location: Bremen Airport


UV Index: 0 (Low)

Visibility: 0 mi


Pressure: 30.01 "Hg

Humidity: 94%

Dew point: 48 °F

Location of WeyheLocation

Historic Weather in Weyhe

°F

Weyhe temperature yesterday

Maximum temperature yesterday: 64 °F (at 4:50 PM)
Minimum temperature yesterday: 54 °F (at 12:20 AM)
Average temperature yesterday: 57 °F

Past Weeks' High & Low Weather Summary

 TemperatureHumidityPressure
High70 °F (Apr 20, 3:20 PM)100% (Apr 10, 11:20 PM)30.48 "Hg (Apr 10, 11:20 PM)
Low28 °F (Apr 16, 4:20 AM)39% (Apr 16, 4:20 PM)29.71 "Hg (Apr 21, 2:20 PM)
Average51 °F78%30.03 "Hg
* Reported Apr 10 5:20 AM — Apr 25 5:20 AM, Weyhe, Weather by CustomWeather, © 2014

Note: Actual official high and low records may vary slightly from our data, if they occured in-between our weather recording intervals... More about our weather records

Advertising

Historic Weather Conditions — Data for Previous 24 hours

 ConditionsComfort  
Time TempWeatherWind HumidityBarometerVisibility
5:20 AM
Apr 25
48 °FFog.7 mph100%30.01 "Hg0 mi
4:50 AM48 °FFog.9 mph100%30.01 "Hg0 mi
4:20 AM48 °FFog.9 mph100%30.04 "Hg1 mi
3:50 AM48 °FClear.8 mph100%30.04 "Hg4 mi
3:20 AM48 °FClear.7 mph100%30.04 "Hg6 mi
2:50 AM50 °FClear.8 mph94%30.04 "Hg6 mi
2:20 AM50 °FClear.7 mph94%30.04 "Hg10 mi
1:20 AM52 °FClear.8 mph94%30.07 "Hg10 mi
12:50 AM52 °FClear.9 mph94%30.07 "Hg10 mi
12:20 AM52 °FClear.9 mph94%30.07 "Hg10 mi
11:50 PM
Apr 24
54 °FClear.12 mph94%30.07 "Hg10 mi
11:20 PM54 °FClear.9 mph94%30.07 "Hg10 mi
10:50 PM54 °FClear.9 mph94%30.07 "Hg10 mi
10:20 PM55 °FClear.10 mph88%30.09 "Hg10 mi
9:50 PM55 °FClear.8 mph88%30.09 "Hg10 mi
9:20 PM57 °FSunny.10 mph88%30.07 "Hg10 mi
8:50 PM57 °FSunny.12 mph88%30.07 "Hg10 mi
8:20 PM59 °FSunny.10 mph82%30.07 "Hg10 mi
7:50 PM61 °FSunny.10 mph77%30.07 "Hg10 mi
7:20 PM61 °FSunny.9 mph77%30.07 "Hg10 mi
6:50 PM61 °FSunny.13 mph83%30.07 "Hg10 mi
6:20 PM63 °FPassing clouds.10 mph77%30.07 "HgN/A
5:50 PM64 °FSunny.10 mph73%30.07 "Hg10 mi
5:20 PM63 °FPassing clouds.10 mph77%30.09 "HgN/A
4:50 PM64 °FSunny.9 mph73%30.09 "Hg10 mi
4:20 PM63 °FScattered clouds.10 mph77%30.09 "HgN/A
3:50 PM63 °FScattered clouds.8 mph77%30.09 "HgN/A
3:20 PM63 °FScattered clouds.8 mph77%30.12 "HgN/A
2:50 PM61 °FScattered clouds.7 mph83%30.12 "HgN/A
2:20 PM61 °FScattered clouds.7 mph77%30.12 "HgN/A
1:50 PM59 °FPartly sunny.7 mph82%30.12 "HgN/A
1:20 PM59 °FPartly sunny.6 mph82%30.12 "HgN/A
12:50 PM57 °FPartly sunny.7 mph88%30.15 "Hg6 mi
12:20 PM55 °FPartly sunny.8 mph88%30.15 "Hg5 mi
11:50 AM55 °FPartly sunny.7 mph94%30.15 "Hg5 mi
11:20 AM55 °FPartly sunny.8 mph88%30.15 "Hg4 mi
10:50 AM55 °FPartly sunny.8 mph94%30.15 "Hg4 mi
10:20 AM54 °FPartly sunny.9 mph100%30.15 "Hg4 mi
9:20 AM54 °FFog.8 mph100%30.15 "Hg2 mi
8:50 AM54 °FFog.8 mph100%30.15 "Hg2 mi
8:20 AM54 °FFog.9 mph100%30.15 "Hg2 mi
7:50 AM54 °FFog.8 mph100%30.15 "Hg1 mi
7:20 AM54 °FFog.8 mph100%30.15 "Hg1 mi
6:50 AM54 °FFog.7 mph100%30.12 "Hg1 mi
6:20 AM54 °FFog.8 mph100%30.12 "Hg1 mi
Weather by CustomWeather, © 2014

See weather overview